KLM17CV EHEH-LJLJ

Flight info

Callsign KLM17CV
Flight time N/A
Altitude 39000
Route VELNI DCT PODIP DCT TESGA DCT DINKU DCT BESNI DCT LATLO DCT OBEDI DCT LUMUS LUMUS4L
Aircraft A20N/M-SDE2E3FGHIRWXY/LB1

Departure

Time 2026-04-30 13:51
Airport Eindhoven Airport (EHEH)

Arrival

Time N/A
Airport Ljubljana Jože Pučnik Airport (LJLJ)
Time Latitude Longitude Altitude Speed Heading
2026-04-30 13:28 51.45823 5.39010 70 ft 0 kts 126°
2026-04-30 13:38 51.45827 5.39002 81 ft 2 kts 125°
2026-04-30 13:38 51.45846 5.38960 58 ft 2 kts 128°
2026-04-30 13:39 51.45870 5.38924 66 ft 2 kts 186°
2026-04-30 13:39 51.45880 5.38930 68 ft 0 kts 213°
2026-04-30 13:42 51.45877 5.38926 75 ft 2 kts 213°
2026-04-30 13:42 51.45792 5.38797 67 ft 15 kts 271°
2026-04-30 13:43 51.45853 5.38643 68 ft 18 kts 305°
2026-04-30 13:43 51.45929 5.38471 72 ft 21 kts 305°
2026-04-30 13:43 51.45988 5.38336 67 ft 4 kts 306°
2026-04-30 13:43 51.45995 5.38279 70 ft 7 kts 249°
2026-04-30 13:44 51.45928 5.38194 68 ft 20 kts 215°
2026-04-30 13:44 51.45794 5.38047 73 ft 25 kts 214°
2026-04-30 13:44 51.45650 5.37891 69 ft 26 kts 212°
2026-04-30 13:44 51.45537 5.37758 82 ft 21 kts 214°
2026-04-30 13:45 51.45292 5.37482 70 ft 15 kts 214°
2026-04-30 13:45 51.45201 5.37380 75 ft 18 kts 216°
2026-04-30 13:45 51.45092 5.37258 83 ft 20 kts 213°
2026-04-30 13:46 51.44978 5.37133 83 ft 21 kts 215°
2026-04-30 13:46 51.44855 5.36998 86 ft 22 kts 217°
2026-04-30 13:46 51.44721 5.36840 82 ft 25 kts 215°
2026-04-30 13:46 51.44565 5.36670 71 ft 29 kts 214°
2026-04-30 13:47 51.44397 5.36481 66 ft 29 kts 212°
2026-04-30 13:47 51.44249 5.36315 85 ft 26 kts 215°
2026-04-30 13:47 51.44102 5.36149 86 ft 25 kts 216°
2026-04-30 13:47 51.43990 5.36076 84 ft 17 kts 154°
2026-04-30 13:48 51.43971 5.36106 79 ft 0 kts 127°
2026-04-30 13:48 51.43961 5.36125 67 ft 6 kts 127°
2026-04-30 13:48 51.43929 5.36216 72 ft 10 kts 95°
2026-04-30 13:48 51.43950 5.36263 76 ft 0 kts 37°
2026-04-30 13:50 51.43951 5.36264 77 ft 1 kts 37°
2026-04-30 13:50 51.44561 5.36951 82 ft 117 kts 35°
2026-04-30 13:50 51.45365 5.37857 146 ft 158 kts 43°
2026-04-30 13:51 51.46275 5.38878 690 ft 159 kts 42°
2026-04-30 13:51 51.47186 5.39858 1410 ft 157 kts 40°
2026-04-30 13:51 51.48084 5.40845 2123 ft 160 kts 42°
2026-04-30 13:51 51.49056 5.41913 2530 ft 178 kts 40°
2026-04-30 13:52 51.50144 5.43126 2832 ft 205 kts 42°
2026-04-30 13:52 51.51307 5.44603 3315 ft 222 kts 53°
2026-04-30 13:52 51.52051 5.46677 4404 ft 210 kts 77°
2026-04-30 13:52 51.52224 5.48198 5192 ft 203 kts 93°
2026-04-30 13:53 51.51782 5.51124 6334 ft 211 kts 120°
2026-04-30 13:53 51.51025 5.53194 7256 ft 216 kts 121°
2026-04-30 13:53 51.50260 5.55288 8237 ft 219 kts 120°
2026-04-30 13:53 51.49763 5.56748 8880 ft 222 kts 115°
2026-04-30 13:54 51.49233 5.59101 9828 ft 227 kts 104°
2026-04-30 13:54 51.48896 5.61616 10531 ft 243 kts 103°
2026-04-30 13:54 51.48591 5.64398 10965 ft 267 kts 97°
2026-04-30 13:54 51.48540 5.67541 11373 ft 292 kts 88°
2026-04-30 13:55 51.48787 5.70919 11734 ft 316 kts 84°
2026-04-30 13:55 51.49085 5.74473 12460 ft 324 kts 84°
2026-04-30 13:55 51.49381 5.78088 13366 ft 329 kts 84°
2026-04-30 13:55 51.49676 5.81763 14193 ft 335 kts 84°
2026-04-30 13:56 51.49971 5.85479 14980 ft 338 kts 84°
2026-04-30 13:56 51.50268 5.89242 15767 ft 342 kts 84°
2026-04-30 13:56 51.50567 5.93054 16521 ft 346 kts 84°
2026-04-30 13:56 51.50868 5.96910 17305 ft 350 kts 84°
2026-04-30 13:57 51.51171 6.00812 18063 ft 354 kts 84°
2026-04-30 13:57 51.51476 6.04757 18787 ft 358 kts 84°
2026-04-30 13:57 51.51779 6.08701 19436 ft 362 kts 84°
2026-04-30 13:57 51.52092 6.12786 20094 ft 366 kts 83°
2026-04-30 13:58 51.52282 6.16866 20724 ft 369 kts 92°
2026-04-30 13:58 51.51024 6.24824 21959 ft 379 kts 116°
2026-04-30 13:58 51.49717 6.28547 22489 ft 386 kts 118°
2026-04-30 13:59 51.48385 6.32316 23095 ft 390 kts 118°
2026-04-30 13:59 51.47047 6.36116 23719 ft 393 kts 118°
2026-04-30 13:59 51.45696 6.39951 24266 ft 397 kts 117°
2026-04-30 13:59 51.44332 6.43824 24808 ft 400 kts 118°
2026-04-30 14:00 51.42961 6.47709 25323 ft 402 kts 118°
2026-04-30 14:00 51.40178 6.55573 26342 ft 408 kts 118°
2026-04-30 14:00 51.38772 6.59539 26840 ft 410 kts 118°
2026-04-30 14:01 51.37360 6.63512 27363 ft 412 kts 118°
2026-04-30 14:01 51.35935 6.67519 27817 ft 415 kts 118°
2026-04-30 14:01 51.34500 6.71545 28251 ft 419 kts 117°
2026-04-30 14:01 51.33048 6.75612 28612 ft 423 kts 117°
2026-04-30 14:02 51.31602 6.79660 29066 ft 425 kts 117°
2026-04-30 14:02 51.30133 6.83763 29479 ft 427 kts 117°
2026-04-30 14:02 51.28653 6.87891 29879 ft 430 kts 117°
2026-04-30 14:02 51.27161 6.92044 30268 ft 432 kts 117°
2026-04-30 14:03 51.25661 6.96213 30633 ft 434 kts 117°
2026-04-30 14:03 51.24156 7.00387 31000 ft 436 kts 117°
2026-04-30 14:03 51.22637 7.04595 31369 ft 438 kts 118°
2026-04-30 14:03 51.21114 7.08808 31761 ft 438 kts 118°
2026-04-30 14:04 51.19587 7.13021 32235 ft 436 kts 118°
2026-04-30 14:04 51.18071 7.17197 32673 ft 436 kts 117°
2026-04-30 14:04 51.16548 7.21388 33097 ft 436 kts 117°
2026-04-30 14:04 51.15033 7.25551 33573 ft 434 kts 117°
2026-04-30 14:05 51.13519 7.29704 34009 ft 433 kts 117°
2026-04-30 14:05 51.12013 7.33831 34425 ft 431 kts 117°
2026-04-30 14:05 51.10498 7.37973 34775 ft 431 kts 117°
2026-04-30 14:05 51.08991 7.42089 35124 ft 430 kts 117°
2026-04-30 14:06 51.07488 7.46185 35451 ft 429 kts 117°
2026-04-30 14:06 51.04474 7.54381 36035 ft 429 kts 117°
2026-04-30 14:07 51.01471 7.62520 36535 ft 431 kts 117°
2026-04-30 14:07 50.99951 7.66629 36805 ft 431 kts 117°
2026-04-30 14:07 50.98434 7.70724 37071 ft 430 kts 117°
2026-04-30 14:08 50.95366 7.78892 37567 ft 432 kts 120°
2026-04-30 14:08 50.93606 7.82756 37803 ft 434 kts 126°
2026-04-30 14:08 50.89461 7.89784 38275 ft 437 kts 131°
2026-04-30 14:09 50.87339 7.93216 38506 ft 437 kts 130°
2026-04-30 14:09 50.85211 7.96668 38743 ft 436 kts 130°
2026-04-30 14:09 50.80961 8.03555 39051 ft 439 kts 130°
2026-04-30 14:10 50.78822 8.07016 39187 ft 440 kts 130°
2026-04-30 14:10 50.76686 8.10466 39326 ft 440 kts 130°
2026-04-30 14:10 50.74539 8.13928 39371 ft 441 kts 130°
2026-04-30 14:11 50.70257 8.20814 39374 ft 439 kts 130°
2026-04-30 14:11 50.65992 8.27658 39381 ft 440 kts 130°
2026-04-30 14:12 50.61701 8.34525 39379 ft 440 kts 131°
2026-04-30 14:12 50.57404 8.41380 39365 ft 440 kts 130°
2026-04-30 14:13 50.53111 8.48212 39370 ft 441 kts 130°
2026-04-30 14:13 50.48785 8.55077 39380 ft 442 kts 130°
2026-04-30 14:14 50.44446 8.61944 39378 ft 443 kts 130°
2026-04-30 14:14 50.40037 8.68670 39368 ft 442 kts 132°
2026-04-30 14:15 50.35615 8.75283 39359 ft 442 kts 132°
2026-04-30 14:15 50.31174 8.81944 39372 ft 442 kts 132°
2026-04-30 14:16 50.26733 8.88601 39365 ft 441 kts 132°
2026-04-30 14:16 50.22296 8.95236 39359 ft 442 kts 132°
2026-04-30 14:17 50.17849 9.01866 39365 ft 442 kts 132°
2026-04-30 14:17 50.13396 9.08487 39364 ft 442 kts 132°
2026-04-30 14:18 50.08934 9.15104 39362 ft 442 kts 132°
2026-04-30 14:18 50.02254 9.24976 39345 ft 444 kts 132°
2026-04-30 14:19 49.95526 9.34880 39355 ft 444 kts 132°
2026-04-30 14:20 49.91039 9.41461 39350 ft 445 kts 132°
2026-04-30 14:20 49.84255 9.51379 39359 ft 446 kts 132°
2026-04-30 14:21 49.79729 9.57973 39356 ft 447 kts 132°
2026-04-30 14:22 49.72906 9.67882 39358 ft 448 kts 132°
2026-04-30 14:22 49.66101 9.77724 39364 ft 449 kts 132°
2026-04-30 14:23 49.56952 9.90894 39359 ft 450 kts 132°
2026-04-30 14:24 49.50071 10.00752 39346 ft 451 kts 132°
2026-04-30 14:25 49.40874 10.13868 39348 ft 451 kts 132°
2026-04-30 14:26 49.33981 10.23650 39360 ft 451 kts 132°
2026-04-30 14:27 49.27044 10.33457 39359 ft 453 kts 132°
2026-04-30 14:27 49.22415 10.40002 39366 ft 453 kts 131°
2026-04-30 14:28 49.15669 10.50076 39400 ft 452 kts 130°
2026-04-30 14:28 49.11166 10.56789 39394 ft 453 kts 130°
2026-04-30 14:29 49.02871 10.69045 39380 ft 454 kts 130°
2026-04-30 14:31 48.90734 10.86867 39375 ft 456 kts 131°
2026-04-30 14:31 48.83870 10.96889 39363 ft 457 kts 131°
2026-04-30 14:32 48.76976 11.06916 39341 ft 458 kts 131°
2026-04-30 14:33 48.72366 11.13598 39342 ft 458 kts 131°
2026-04-30 14:33 48.65439 11.23604 39347 ft 459 kts 131°
2026-04-30 14:34 48.61080 11.30578 39348 ft 456 kts 127°
2026-04-30 14:34 48.56823 11.37697 39341 ft 457 kts 127°
2026-04-30 14:35 48.50409 11.48349 39341 ft 458 kts 127°
2026-04-30 14:36 48.46108 11.55456 39343 ft 458 kts 127°
2026-04-30 14:36 48.41806 11.62542 39344 ft 459 kts 127°
2026-04-30 14:37 48.37491 11.69634 39373 ft 459 kts 127°
2026-04-30 14:37 48.33196 11.76673 39344 ft 460 kts 127°
2026-04-30 14:38 48.28864 11.83754 39347 ft 461 kts 127°
2026-04-30 14:38 48.24509 11.90854 39351 ft 462 kts 127°
2026-04-30 14:39 48.20147 11.97946 39353 ft 463 kts 127°
2026-04-30 14:39 48.16527 12.03815 39376 ft 460 kts 127°
2026-04-30 14:40 48.09973 12.14412 39353 ft 462 kts 128°
2026-04-30 14:40 48.05593 12.21467 39352 ft 462 kts 128°
2026-04-30 14:41 48.01205 12.28518 39351 ft 463 kts 128°
2026-04-30 14:41 47.96819 12.35549 39356 ft 462 kts 128°
2026-04-30 14:42 47.92447 12.42538 39339 ft 462 kts 128°
2026-04-30 14:42 47.88032 12.49575 39336 ft 462 kts 128°
2026-04-30 14:43 47.83636 12.56565 39338 ft 462 kts 128°
2026-04-30 14:43 47.79238 12.63538 39352 ft 462 kts 128°
2026-04-30 14:44 47.74862 12.70459 39353 ft 462 kts 128°
2026-04-30 14:44 47.70446 12.77427 39336 ft 463 kts 128°
2026-04-30 14:45 47.66534 12.83531 39333 ft 464 kts 130°
2026-04-30 14:45 47.65716 12.84753 39334 ft 465 kts 130°
2026-04-30 14:46 47.62563 12.89379 39335 ft 464 kts 131°
2026-04-30 14:46 47.57964 12.96107 39323 ft 463 kts 130°
2026-04-30 14:47 47.53384 13.02841 39310 ft 464 kts 130°
2026-04-30 14:47 47.48799 13.09583 39292 ft 465 kts 131°
2026-04-30 14:48 47.46495 13.12961 39099 ft 466 kts 131°
2026-04-30 14:48 47.44195 13.16331 38859 ft 465 kts 131°
2026-04-30 14:48 47.41924 13.19652 38573 ft 464 kts 131°
2026-04-30 14:48 47.39634 13.22998 38283 ft 464 kts 131°
2026-04-30 14:49 47.37333 13.26357 37651 ft 466 kts 130°
2026-04-30 14:49 47.35023 13.29723 36995 ft 465 kts 130°
2026-04-30 14:49 47.32675 13.33015 36379 ft 465 kts 134°
2026-04-30 14:49 47.30151 13.36014 35692 ft 467 kts 137°
2026-04-30 14:50 47.24969 13.41873 34295 ft 469 kts 137°
2026-04-30 14:50 47.22383 13.44801 33529 ft 468 kts 136°
2026-04-30 14:51 47.17218 13.50651 31919 ft 468 kts 136°
2026-04-30 14:51 47.14680 13.53519 31298 ft 463 kts 136°
2026-04-30 14:51 47.09644 13.59199 30388 ft 454 kts 136°
2026-04-30 14:52 47.07142 13.62021 29684 ft 452 kts 136°
2026-04-30 14:52 47.02219 13.67553 28448 ft 441 kts 136°
2026-04-30 14:52 46.99793 13.70292 27673 ft 440 kts 136°
2026-04-30 14:53 46.95010 13.75661 26479 ft 431 kts 137°
2026-04-30 14:53 46.92637 13.78318 25900 ft 427 kts 137°
2026-04-30 14:54 46.87948 13.83551 24678 ft 421 kts 137°
2026-04-30 14:54 46.83348 13.88679 23471 ft 416 kts 138°
2026-04-30 14:55 46.78775 13.93768 21911 ft 413 kts 138°
2026-04-30 14:55 46.76478 13.96326 20909 ft 419 kts 139°
2026-04-30 14:55 46.71807 14.01514 19326 ft 419 kts 139°
2026-04-30 14:56 46.67207 14.06598 17987 ft 411 kts 139°
2026-04-30 14:56 46.62701 14.11570 16668 ft 401 kts 140°
2026-04-30 14:57 46.60488 14.14008 16114 ft 395 kts 140°